User: anonymous   Login
Location: Cherry Springs State Park
(41.6616°N, 77.8240°W)
Time: 18:42:28
(UTC-05:00)
Language:

Cosmos 1437 - Orbit

View from above orbital plane
View from above orbital plane
View from above satellite
View from above satellite

Ground track
Ground track

The orbit data is extracted from the following two-line orbital elements,

1 13770U 83003A   14325.82031368  .00014252  00000-0  43221-3 0  7085
2 13770 081.1655 208.1273 0008837 305.2311 099.0798 15.33968076741710
Epoch (UTC): 21 November 2014 19:41:15
Eccentricity: 0.0008837
inclination: 81.1655°
perigee height: 458 km
apogee height: 470 km
right ascension of ascending node: 208.1273°
argument of perigee: 305.2311°
revolutions per day: 15.33968076
mean anomaly at epoch: 99.0798°
orbit number at epoch: 74171

The dashed part of the orbit path shows where the satellite is in the earth's shadow,  

DLR